Wind_Speed
17 17 17 17 17 16 15 15 16 18 20 22 23 24 23 23 23 22 21 20 19 18 17 16 15 14 13 13 12 11 11 10 10 10 10 10 10 11 11 12 13 14 15 15 15 16 16 17 18
19 19 18 18 17 15 14 15 16 17 19 21 22 22 22 23 22 22 21 19 19 18 17 16 15 14 14 13 13 12 12 11 10 10 10 10 11 11 12 13 14 15 15 16 16 16 17 18 19
21 20 20 18 16 15 15 16 16 17 17 19 20 20 21 21 21 20 20 19 19 18 17 17 16 15 14 13 13 12 12 11 10 10 11 11 12 12 13 14 15 15 15 16 17 18 18 19 20
23 22 21 19 17 16 16 16 16 16 16 17 18 19 19 19 19 19 19 19 18 18 17 16 16 15 14 13 13 12 12 11 11 11 11 12 13 13 14 15 15 16 16 17 18 19 19 20 21
26 25 23 20 18 17 18 18 16 16 16 16 17 18 18 18 18 18 18 18 17 17 17 16 15 15 14 14 13 13 12 12 12 12 12 13 14 14 15 15 16 17 17 18 19 19 20 21 22
29 27 26 22 20 20 20 19 17 16 16 17 17 17 18 17 17 17 17 17 16 16 16 15 15 14 14 13 13 13 13 13 13 13 13 14 14 14 15 16 17 17 18 18 19 20 21 22 23
32 30 28 26 24 22 22 21 19 18 17 17 17 18 18 17 17 17 17 17 16 15 15 15 15 14 14 13 13 13 13 13 13 13 13 14 14 15 16 17 17 18 18 19 20 21 22 23 24
35 34 32 29 26 24 24 23 21 20 19 19 18 18 18 18 18 17 17 17 16 15 15 15 14 14 13 13 13 13 14 14 14 14 14 14 15 16 17 18 18 19 20 21 22 23 24 25 26
39 38 34 31 29 27 27 26 24 23 21 20 19 19 19 19 18 17 17 16 16 16 15 15 14 14 14 14 15 14 14 14 14 15 15 16 17 18 18 19 19 20 21 22 23 24 25 26 27
42 40 35 32 32 31 30 29 28 26 24 22 21 20 20 20 19 18 17 17 17 16 16 16 15 15 15 15 15 15 15 15 16 16 17 17 18 19 19 20 21 22 23 24 25 26 27 28 29
44 41 37 36 35 35 34 33 31 29 26 24 23 23 22 22 21 20 19 18 17 17 16 16 16 15 15 15 15 16 16 16 17 17 18 19 19 20 21 22 23 24 25 26 27 28 29 29 30
46 43 40 38 38 38 37 36 34 32 29 28 27 25 24 23 22 21 20 19 18 18 17 17 17 16 16 16 17 17 17 18 18 19 19 20 21 22 23 24 25 26 27 28 28 29 30 30 31
49 46 43 42 42 41 40 39 37 35 33 31 29 28 26 25 25 23 22 21 20 20 19 19 18 18 18 18 19 19 19 19 20 21 21 22 23 24 24 26 27 27 28 29 30 30 31 32 32
50 49 47 46 45 45 44 42 41 37 36 34 32 30 29 27 26 26 24 23 22 22 22 21 20 20 20 20 20 21 21 21 22 22 23 24 24 25 26 27 28 29 29 30 31 31 32 33 33
53 52 51 49 48 47 47 46 43 39 38 37 35 33 31 29 28 27 27 26 25 25 24 23 23 22 22 22 22 22 22 23 23 24 25 26 26 27 28 28 29 30 30 31 32 32 33 34 34
56 56 55 51 50 49 50 48 43 41 41 40 38 36 34 32 30 29 29 29 28 27 26 25 24 24 24 24 23 24 24 25 25 26 27 27 28 28 29 29 30 31 32 32 33 33 34 35 35
59 59 55 52 51 51 52 49 44 43 44 42 40 38 36 34 32 31 31 31 30 29 28 27 27 26 26 26 26 26 26 27 27 28 29 29 29 30 30 31 31 32 33 33 34 35 35 36 36
59 58 56 53 51 52 53 51 46 46 46 45 43 41 39 37 35 34 33 33 32 31 30 30 29 29 29 28 28 28 28 29 29 30 30 30 30 31 31 32 33 33 34 34 35 35 36 37 37
56 57 56 54 52 53 54 52 49 48 49 48 46 44 42 39 37 37 36 35 34 33 32 31 31 31 30 30 30 30 30 30 31 31 32 31 31 32 33 33 33 34 34 35 36 36 37 37 38
58 58 57 55 55 55 55 54 51 50 50 49 47 46 43 41 40 39 38 37 36 35 34 33 33 33 32 32 32 32 32 32 32 33 32 33 33 34 34 34 34 35 35 36 37 37 38 38 38
59 59 56 55 55 56 56 56 54 51 51 50 49 47 45 43 41 41 40 38 37 36 35 35 35 34 34 34 34 34 33 33 33 34 34 35 35 35 35 35 36 36 36 37 37 38 38 38 39
58 55 55 55 55 56 57 59 55 52 52 51 49 47 46 44 43 42 41 40 38 37 37 36 36 36 36 36 36 35 34 34 35 36 36 36 36 36 36 36 36 36 37 38 38 38 39 39 39
54 53 54 54 56 57 58 60 57 54 53 50 48 47 46 45 43 43 42 41 40 39 39 38 37 37 37 36 36 36 35 35 36 37 37 37 37 37 37 37 37 37 38 39 39 39 39 39 40
54 53 54 55 55 60 58 60 61 55 51 48 46 45 45 44 44 43 42 42 41 40 40 39 38 37 37 37 37 36 36 36 37 37 37 38 38 37 37 37 38 38 39 39 39 38 39 39 40
56 55 54 56 58 61 57 61 62 52 49 46 45 45 44 44 44 43 43 42 41 40 40 39 39 38 38 38 38 37 37 37 37 37 38 38 38 38 38 38 38 38 39 39 38 38 39 39 40
56 57 57 57 59 58 57 60 58 50 47 46 45 44 44 44 43 43 43 42 42 41 40 39 39 38 38 38 38 38 37 37 37 38 38 38 38 38 38 38 39 39 38 38 38 38 39 40 40
58 57 55 55 56 56 58 56 54 50 45 43 43 43 43 42 42 42 42 42 41 41 40 39 39 38 39 38 38 37 37 37 37 38 38 38 38 38 38 38 38 38 38 38 38 39 39 40 40
58 57 56 56 55 55 56 55 51 46 42 40 40 41 41 41 41 41 42 41 41 41 40 40 40 39 39 38 38 38 37 37 37 37 38 38 38 38 38 38 38 38 38 38 38 39 40 40 40
58 58 58 56 55 53 53 52 46 43 40 39 38 39 40 40 41 41 40 40 40 40 40 41 40 39 39 38 38 38 37 37 37 37 37 37 37 37 37 37 37 37 37 38 38 39 40 40 41
56 56 57 57 55 53 52 49 43 41 40 39 38 38 38 39 39 39 39 39 39 39 39 39 39 39 38 38 38 37 37 37 37 37 37 37 37 36 37 37 37 37 37 38 38 39 40 41 42
Wind_Direction
247 243 237 235 234 232 229 225 224 224 223 223 224 224 223 222 221 219 219 220 221 222 223 224 225 228 231 235 239 243 249 255 259 263 269 275 280 284 288 291 294 295 297 297 298 298 298 299 299
246 243 238 235 233 230 226 223 221 221 221 221 222 221 220 220 220 219 219 220 221 222 223 225 227 230 234 237 241 246 250 255 259 264 270 277 282 286 289 292 294 296 297 297 297 298 298 298 299
246 242 238 233 231 228 224 223 221 221 220 220 220 219 217 217 218 218 219 221 222 223 225 227 229 232 235 240 243 247 250 253 259 265 272 278 283 286 290 293 295 296 297 297 297 297 298 298 298
244 240 236 231 228 226 224 224 222 221 219 218 218 217 215 215 216 217 218 221 222 224 225 227 229 232 236 240 244 248 250 254 260 267 274 280 284 287 290 292 294 294 295 296 296 297 297 298 297
242 239 235 230 225 224 224 223 221 220 217 216 216 214 214 213 214 215 216 218 220 222 224 226 228 232 236 241 244 246 251 257 263 269 275 280 282 285 288 290 292 293 295 296 296 297 298 298 298
240 237 234 229 225 223 224 223 221 218 215 215 214 213 212 213 213 213 212 214 216 218 221 224 229 233 237 239 243 247 254 260 267 272 277 280 282 285 288 291 293 295 296 297 298 298 298 298 299
239 236 233 228 225 224 225 224 221 219 216 214 213 212 211 211 212 214 213 213 215 218 222 227 230 234 237 241 245 250 256 262 268 272 276 280 283 286 290 292 294 295 296 297 298 299 300 300 300
237 235 232 228 226 224 226 225 222 219 217 215 214 213 213 212 213 214 215 216 218 220 224 228 232 235 239 243 248 252 258 264 268 272 276 280 283 286 290 292 294 296 297 298 299 300 301 301 301
235 234 231 229 227 224 225 226 223 219 218 217 215 215 214 214 214 215 216 218 220 223 227 231 235 239 243 248 251 255 260 265 269 273 277 280 283 286 288 291 293 296 298 298 299 300 300 301 300
234 234 232 231 228 225 225 225 223 220 218 217 216 215 216 217 217 218 220 222 225 227 230 234 239 244 248 250 254 258 263 267 271 274 278 281 284 286 288 290 293 295 297 298 298 298 299 300 300
234 233 231 230 228 226 225 224 223 221 218 217 217 217 218 218 219 220 223 226 229 231 234 237 241 246 251 254 258 262 265 268 272 276 280 283 285 286 288 291 293 295 297 298 298 298 298 299 299
234 232 230 229 229 227 225 224 224 223 220 219 218 217 218 220 221 223 226 229 231 234 237 241 244 249 253 257 261 264 267 269 273 278 281 284 285 287 289 291 293 295 296 297 298 298 298 298 299
233 231 230 228 228 228 226 225 224 224 223 222 221 221 220 222 225 227 229 232 235 238 240 243 247 251 255 258 262 265 269 273 276 280 282 285 286 288 290 292 294 295 296 297 298 298 298 298 299
233 231 229 228 228 228 228 226 225 224 225 225 224 224 224 225 227 230 232 235 238 241 243 247 250 253 257 260 263 267 271 275 278 281 283 284 286 288 290 293 294 294 295 296 297 297 298 298 299
232 231 229 228 228 229 229 227 226 225 227 227 227 227 227 228 230 232 234 236 239 242 245 249 252 255 259 262 265 268 272 275 279 281 283 285 286 288 290 292 293 294 295 296 296 297 298 298 299
231 231 230 228 229 229 231 229 227 227 229 229 229 230 230 231 232 234 236 239 241 244 247 250 253 257 260 263 267 270 273 276 279 281 283 285 287 288 290 291 292 293 294 295 296 297 297 298 298
231 231 231 229 230 231 232 230 227 229 230 231 231 232 233 234 235 237 239 241 243 245 247 250 254 257 261 264 267 271 273 276 278 281 283 284 286 288 289 291 291 292 293 294 295 296 297 298 299
232 233 232 231 230 232 233 232 228 230 231 232 232 233 234 235 237 239 241 242 244 246 248 251 255 258 261 265 267 271 273 275 277 279 282 284 285 286 287 289 290 291 292 293 294 295 296 297 298
233 233 233 231 231 233 234 234 231 231 232 232 233 234 235 236 237 240 242 244 245 247 249 252 255 258 262 265 267 270 272 274 277 279 281 283 283 284 286 288 289 290 291 292 293 295 296 297 297
231 231 231 231 231 233 234 234 232 231 233 233 234 235 236 237 239 241 243 245 246 248 250 253 256 259 261 264 267 269 271 274 276 279 281 281 282 283 285 287 288 289 291 292 293 294 295 296 297
229 229 230 231 232 234 235 234 232 232 233 234 235 236 237 238 240 242 244 246 247 249 251 254 256 259 261 264 266 269 271 273 275 277 279 280 281 283 286 287 287 288 290 292 293 294 295 296 297
229 229 230 231 232 233 235 236 231 232 233 235 236 237 238 240 241 243 245 247 248 250 252 254 256 259 261 264 266 269 271 272 274 275 277 279 282 283 284 285 286 288 290 292 293 294 295 296 296
229 229 230 232 233 234 234 237 231 231 233 234 236 238 239 241 242 243 245 247 249 251 252 254 256 258 261 263 265 267 269 271 273 275 277 279 280 281 282 284 286 287 289 291 292 293 294 295 296
227 228 230 232 234 235 233 237 234 229 231 234 236 238 239 240 241 243 245 247 249 251 252 254 256 258 260 262 264 266 268 270 272 274 276 278 279 280 281 283 285 287 289 291 292 293 294 295 296
223 224 228 230 232 234 232 237 236 229 230 233 235 237 238 239 241 242 245 247 249 250 252 254 256 258 260 261 263 265 266 268 271 273 275 277 278 279 280 283 285 287 289 291 292 293 294 295 296
222 224 226 230 234 235 234 236 236 232 230 231 234 237 239 240 241 242 244 246 248 249 251 253 256 257 259 260 262 264 266 268 270 272 274 275 276 277 280 282 284 286 288 289 291 292 293 294 296
222 223 226 230 235 236 237 236 235 234 231 231 233 235 237 240 241 242 244 246 247 248 250 252 254 255 257 259 261 262 265 268 269 271 272 274 275 277 280 282 284 285 286 288 289 291 292 294 295
224 224 225 227 231 234 236 236 233 233 233 232 233 234 236 239 241 242 243 245 246 248 250 251 253 254 256 258 260 262 265 267 268 269 271 273 274 277 279 281 283 284 286 287 289 290 292 294 295
222 223 225 228 231 234 236 235 232 234 234 234 234 234 236 238 240 242 243 244 246 247 249 250 252 254 255 257 260 262 263 265 266 268 270 272 274 276 278 280 282 284 286 287 289 290 292 294 295
226 227 227 228 231 233 236 234 232 233 233 233 233 234 235 236 238 240 242 243 245 247 248 250 252 253 255 257 259 260 262 264 266 268 270 272 274 276 278 280 282 284 286 287 289 290 292 294 296
Height
5818 5818 5819 5821 5822 5824 5825 5826 5827 5829 5830 5832 5834 5836 5839 5842 5846 5850 5851 5851 5853 5855 5857 5858 5860 5861 5863 5864 5865 5866 5866 5867 5867 5868 5868 5869 5869 5869 5869 5869 5869 5869 5868 5868 5868 5867 5866 5866 5865
5814 5815 5817 5818 5819 5821 5823 5824 5825 5826 5828 5829 5831 5834 5836 5839 5842 5845 5846 5848 5850 5853 5854 5856 5858 5859 5860 5861 5862 5864 5864 5865 5865 5866 5866 5867 5867 5867 5867 5867 5866 5866 5866 5865 5865 5864 5864 5863 5862
5811 5812 5814 5815 5817 5819 5821 5821 5822 5823 5825 5827 5829 5831 5834 5836 5839 5842 5844 5846 5848 5850 5852 5854 5855 5857 5858 5859 5860 5861 5862 5863 5863 5864 5864 5864 5865 5865 5865 5864 5864 5864 5863 5863 5862 5861 5861 5860 5859
5807 5808 5810 5813 5815 5817 5818 5819 5820 5821 5823 5825 5827 5829 5832 5835 5837 5839 5841 5844 5846 5848 5849 5851 5853 5854 5856 5857 5858 5859 5860 5860 5861 5862 5862 5862 5862 5862 5862 5862 5861 5861 5860 5860 5859 5858 5857 5856 5855
5802 5804 5807 5809 5812 5814 5815 5816 5817 5819 5821 5823 5825 5827 5829 5832 5834 5837 5839 5841 5843 5845 5847 5849 5850 5852 5853 5854 5855 5856 5857 5858 5858 5859 5859 5859 5859 5859 5859 5859 5858 5858 5857 5856 5856 5855 5854 5853 5852
5797 5799 5803 5806 5809 5810 5812 5813 5815 5817 5819 5821 5823 5825 5827 5830 5832 5834 5837 5839 5841 5843 5845 5846 5848 5849 5851 5852 5853 5854 5855 5855 5856 5856 5856 5856 5856 5856 5856 5856 5855 5854 5854 5853 5852 5851 5850 5849 5848
5792 5794 5797 5801 5804 5807 5809 5810 5812 5815 5816 5819 5821 5823 5825 5828 5830 5832 5834 5837 5839 5841 5842 5844 5846 5847 5848 5849 5850 5851 5852 5852 5853 5853 5853 5853 5853 5853 5853 5852 5852 5851 5850 5849 5848 5847 5846 5845 5843
5784 5788 5792 5796 5800 5803 5805 5806 5809 5811 5814 5816 5818 5821 5823 5825 5827 5830 5832 5834 5836 5838 5840 5842 5843 5844 5845 5846 5847 5848 5849 5849 5850 5850 5850 5850 5850 5850 5849 5849 5848 5847 5846 5845 5844 5843 5842 5840 5839
5777 5781 5786 5791 5795 5798 5799 5802 5805 5808 5810 5813 5815 5818 5820 5822 5825 5827 5829 5831 5833 5835 5837 5839 5840 5841 5842 5843 5844 5845 5846 5846 5847 5847 5847 5847 5847 5846 5846 5845 5844 5844 5842 5841 5840 5838 5837 5835 5834
5768 5774 5781 5786 5788 5791 5793 5796 5800 5803 5806 5809 5812 5815 5817 5819 5822 5824 5827 5829 5830 5832 5834 5835 5837 5838 5839 5840 5840 5841 5842 5843 5843 5843 5843 5843 5843 5842 5842 5841 5840 5839 5838 5836 5835 5834 5832 5830 5828
5760 5767 5774 5777 5780 5783 5787 5790 5794 5798 5802 5806 5808 5811 5813 5816 5818 5821 5823 5825 5827 5829 5830 5832 5833 5834 5835 5836 5837 5838 5839 5839 5839 5839 5839 5839 5839 5838 5838 5837 5836 5834 5833 5832 5830 5828 5827 5825 5823
5752 5759 5764 5769 5772 5775 5779 5784 5788 5792 5797 5800 5803 5806 5809 5812 5814 5817 5819 5821 5823 5825 5827 5828 5830 5831 5832 5833 5833 5834 5835 5835 5835 5835 5835 5835 5834 5834 5833 5832 5831 5829 5828 5826 5824 5823 5821 5819 5817
5742 5749 5754 5759 5763 5767 5771 5776 5781 5786 5791 5794 5798 5802 5805 5808 5810 5813 5815 5817 5819 5821 5823 5824 5826 5827 5828 5829 5829 5830 5830 5831 5831 5831 5831 5830 5829 5829 5828 5827 5825 5824 5822 5821 5819 5817 5815 5813 5811
5733 5738 5743 5748 5753 5758 5763 5768 5773 5780 5783 5788 5792 5796 5800 5803 5805 5808 5810 5813 5815 5816 5818 5820 5821 5822 5823 5824 5825 5825 5826 5826 5826 5826 5825 5825 5824 5823 5822 5821 5820 5818 5817 5815 5813 5811 5809 5807 5805
5721 5726 5732 5739 5744 5750 5754 5759 5766 5773 5776 5781 5785 5790 5794 5797 5800 5803 5805 5808 5809 5811 5813 5815 5816 5817 5818 5819 5820 5820 5820 5821 5821 5820 5820 5819 5819 5818 5817 5815 5814 5812 5810 5809 5807 5805 5802 5800 5798
5708 5714 5721 5731 5736 5741 5745 5752 5761 5764 5768 5773 5778 5782 5787 5791 5794 5797 5800 5802 5804 5806 5807 5809 5811 5812 5813 5814 5815 5815 5815 5815 5815 5814 5814 5813 5813 5812 5810 5809 5808 5806 5804 5802 5800 5798 5796 5794 5791
5695 5703 5713 5723 5727 5731 5735 5744 5753 5755 5759 5764 5770 5774 5779 5783 5787 5790 5793 5796 5798 5800 5801 5803 5805 5806 5807 5808 5809 5809 5810 5809 5809 5808 5808 5807 5806 5805 5804 5803 5801 5799 5798 5796 5794 5791 5789 5787 5784
5689 5697 5705 5713 5718 5721 5725 5733 5742 5745 5749 5755 5761 5766 5771 5776 5780 5783 5786 5788 5791 5793 5795 5797 5799 5800 5801 5802 5803 5803 5803 5803 5803 5802 5801 5801 5800 5799 5798 5796 5794 5793 5791 5789 5787 5784 5782 5780 5777
5680 5686 5693 5702 5707 5710 5715 5722 5731 5735 5739 5745 5752 5757 5762 5768 5772 5775 5778 5781 5783 5786 5788 5790 5792 5793 5794 5795 5796 5797 5797 5797 5796 5796 5795 5794 5793 5792 5791 5789 5788 5786 5784 5782 5780 5777 5775 5773 5770
5666 5672 5681 5689 5695 5699 5703 5709 5718 5724 5729 5736 5742 5748 5754 5759 5763 5767 5770 5773 5776 5779 5781 5783 5785 5786 5787 5789 5789 5790 5790 5790 5789 5789 5788 5787 5786 5785 5784 5782 5781 5779 5777 5775 5773 5770 5768 5765 5763
5653 5662 5672 5678 5684 5687 5692 5697 5706 5714 5720 5726 5733 5739 5744 5750 5754 5758 5761 5765 5768 5771 5774 5776 5777 5778 5780 5780 5781 5782 5782 5782 5782 5781 5780 5779 5778 5777 5776 5775 5773 5771 5769 5767 5765 5763 5760 5758 5755
5643 5655 5662 5666 5671 5675 5680 5684 5696 5703 5709 5717 5724 5730 5736 5741 5745 5749 5753 5756 5760 5763 5765 5767 5769 5770 5771 5772 5773 5774 5775 5775 5774 5773 5772 5772 5771 5770 5769 5767 5765 5764 5762 5760 5757 5755 5753 5750 5747
5637 5646 5650 5654 5658 5662 5667 5671 5683 5693 5700 5709 5716 5722 5727 5732 5736 5740 5744 5747 5750 5753 5756 5758 5760 5762 5763 5764 5765 5766 5767 5767 5766 5765 5765 5764 5763 5762 5761 5759 5758 5756 5754 5752 5750 5747 5745 5742 5739
5625 5631 5636 5640 5644 5647 5657 5660 5668 5684 5694 5701 5708 5713 5717 5722 5726 5730 5734 5737 5741 5744 5747 5749 5752 5754 5755 5756 5757 5758 5758 5758 5758 5757 5757 5756 5755 5754 5753 5751 5750 5748 5746 5744 5742 5739 5737 5734 5731
5610 5618 5624 5626 5629 5635 5649 5649 5658 5679 5687 5693 5699 5703 5707 5712 5716 5721 5725 5728 5731 5735 5738 5740 5742 5745 5746 5747 5748 5749 5750 5749 5749 5749 5748 5748 5747 5746 5744 5743 5742 5740 5738 5736 5734 5731 5729 5726 5723
5601 5608 5614 5618 5622 5631 5638 5639 5654 5670 5678 5684 5689 5694 5698 5702 5707 5711 5715 5719 5722 5725 5728 5731 5733 5735 5737 5738 5740 5740 5740 5741 5741 5741 5740 5739 5739 5737 5736 5735 5734 5732 5730 5728 5726 5723 5721 5718 5715
5589 5595 5606 5611 5614 5621 5624 5634 5647 5658 5668 5675 5680 5684 5689 5693 5697 5701 5705 5709 5712 5716 5719 5721 5724 5726 5728 5729 5730 5731 5731 5732 5732 5732 5731 5731 5730 5729 5728 5727 5725 5724 5722 5720 5718 5715 5713 5710 5707
5579 5588 5593 5598 5603 5608 5615 5625 5638 5650 5659 5666 5671 5676 5680 5684 5687 5691 5695 5699 5703 5706 5709 5712 5714 5717 5718 5720 5721 5722 5723 5723 5723 5723 5723 5722 5722 5721 5720 5718 5717 5716 5714 5711 5709 5707 5704 5702 5698
5568 5574 5580 5588 5594 5600 5607 5620 5634 5643 5650 5656 5662 5666 5670 5674 5678 5682 5685 5689 5693 5696 5699 5702 5705 5707 5709 5711 5712 5713 5713 5714 5714 5714 5714 5713 5713 5712 5711 5710 5709 5707 5705 5703 5701 5699 5696 5693 5690
5558 5565 5573 5579 5586 5593 5600 5615 5626 5634 5640 5646 5652 5656 5660 5665 5669 5672 5676 5680 5683 5687 5690 5693 5695 5697 5699 5701 5702 5703 5704 5705 5705 5705 5705 5705 5704 5704 5703 5701 5700 5699 5697 5695 5693 5690 5687 5684 5681